This is the latest recevied weather packets stored in our database for station/object W5ITZ. If no packets are shown the sender has not sent any weather packets the latest 10 day(s).
| Time | Temp. | Humidity | Pressure | Rain* | Wind** | Luminosity | Snow |
|---|---|---|---|---|---|---|---|
| 1787920015 | 24.44° C | 95% | 1016.4 hPa | 0 mm | - | 23 W/m² | - |
| 1787919709 | 24.44° C | 95% | 1016.3 hPa | 0 mm | - | 17 W/m² | - |
| 1787919409 | 24.44° C | 95% | 1016.1 hPa | 0 mm | - | 13 W/m² | - |
| 1787919105 | 24.44° C | 95% | 1016.4 hPa | 0 mm | - | 8 W/m² | - |
| 1787918799 | 25° C | 95% | 1015.9 hPa | 0 mm | - | 5 W/m² | - |
| 1787918499 | 25° C | 95% | 1016.1 hPa | 0 mm | - | 3 W/m² | - |
| 1787918198 | 25° C | 95% | 1016 hPa | 0 mm | - | 1 W/m² | - |
| 1787917892 | 25° C | 95% | 1016.1 hPa | 0 mm | - | 0 W/m² | - |
| 1787917588 | 25° C | 95% | 1015.9 hPa | 0 mm | - | 0 W/m² | - |
| 1787917285 | 25° C | 95% | 1016 hPa | 0 mm | - | 0 W/m² | - |
| 1787916984 | 25° C | 95% | 1016.4 hPa | 0 mm | - | 0 W/m² | - |
| 1787916679 | 25° C | 95% | 1016 hPa | 0 mm | - | 0 W/m² | - |
| 1787916373 | 25° C | 96% | 1016.1 hPa | 0 mm | - | 0 W/m² | - |
| 1787916069 | 25° C | 95% | 1015.8 hPa | 0 mm | - | 0 W/m² | - |
| 1787915769 | 25° C | 95% | 1015.8 hPa | 0 mm | - | 0 W/m² | - |
| 1787915464 | 25° C | 95% | 1015.8 hPa | 0 mm | - | 0 W/m² | - |
| 1787915163 | 25° C | 95% | 1015.5 hPa | 0 mm | - | 0 W/m² | - |
| 1787914858 | 25° C | 95% | 1015.7 hPa | 0 mm | - | 0 W/m² | - |
| 1787914555 | 25° C | 95% | 1015.9 hPa | 0 mm | - | 0 W/m² | - |
| 1787914252 | 25° C | 95% | 1015.7 hPa | 0 mm | - | 0 W/m² | - |
| 1787913946 | 25° C | 95% | 1015.6 hPa | 0 mm | - | 0 W/m² | - |
| 1787913646 | 25° C | 95% | 1015.9 hPa | 0 mm | - | 0 W/m² | - |
| 1787913344 | 25° C | 95% | 1015.7 hPa | 0 mm | - | 0 W/m² | - |
| 1787913040 | 25.56° C | 95% | 1015.5 hPa | 0 mm | - | 0 W/m² | - |
| 1787912738 | 25.56° C | 94% | 1015.7 hPa | 0 mm | - | 0 W/m² | - |
* Rain latest hour (hover to see other rain measurements)
** Current wind speed in m/s (hover to see current wind gust speed)